Theta_e
302 302 302 302 302 303 304 304 304 304 304 299 296 299 293 293 290 303 307 309 304 295 286 288 287 286 288 293 292 293 292 290 291 289 291 289 292 290 289 289 287 290 289 290 290 290 286 287 286 290 289 290 292 295 296 297 296 296 294 297 297 306 289 286 287 291 293 295 295 296 297 296 292 293 292 291 289 289 286 283 286 284 286 285 283 281 284
302 302 302 302 302 303 304 304 304 304 304 300 299 294 292 293 292 296 308 308 305 291 282 282 284 287 290 290 289 293 291 290 289 289 291 290 290 289 290 291 293 289 293 292 289 292 282 289 289 288 291 289 296 296 296 297 294 294 293 292 300 290 291 288 281 282 284 287 291 290 294 294 290 288 291 292 292 293 292 294 291 283 287 287 283 279 283
302 302 302 302 303 303 303 304 304 304 304 303 299 292 295 293 296 296 300 307 300 286 288 285 284 286 285 285 285 287 289 293 293 291 290 293 291 290 289 291 293 292 294 292 293 293 290 286 291 291 292 292 296 296 296 297 295 298 302 306 300 291 289 286 280 278 276 277 278 281 284 287 290 294 292 293 291 292 290 283 284 282 286 290 283 286 294
302 302 303 303 303 303 303 303 304 303 304 303 299 296 293 290 283 291 294 298 296 292 293 289 285 284 284 283 286 288 286 290 293 293 291 294 293 292 292 293 293 291 292 290 290 290 293 289 290 290 290 293 295 296 297 297 296 303 308 307 299 293 296 291 286 282 280 285 288 292 292 290 285 289 291 291 293 292 291 288 282 281 285 286 288 294 293
302 302 302 303 303 303 303 303 303 303 303 303 299 298 294 294 286 286 284 292 290 287 288 286 287 284 288 282 286 283 284 287 290 297 289 294 293 292 292 291 290 291 291 290 289 291 290 292 291 291 292 296 294 297 297 297 299 311 307 306 298 295 289 292 293 293 290 291 292 293 293 290 290 291 290 291 292 293 291 285 282 290 287 281 291 296 296
301 302 302 302 302 303 303 303 303 303 303 304 301 294 297 286 290 292 293 285 283 284 285 286 285 287 286 284 286 282 283 286 285 292 294 294 294 289 293 292 292 292 291 292 286 290 290 292 288 293 293 293 294 293 296 295 301 308 301 303 298 293 285 292 293 293 294 293 293 293 292 291 292 291 291 291 292 291 290 288 293 291 282 281 291 297 296
300 301 302 302 302 303 303 303 303 303 302 303 299 292 294 294 292 292 297 285 288 286 287 287 285 285 285 284 284 282 283 284 289 290 292 291 293 293 282 291 294 294 294 292 289 291 286 282 292 292 293 296 292 291 293 299 304 299 297 297 301 294 286 295 293 291 294 294 293 293 292 291 291 291 291 292 292 291 293 294 294 293 291 293 298 297 297
300 301 302 302 302 303 303 302 303 303 302 302 296 295 291 288 287 286 293 291 288 289 288 285 285 283 287 284 285 284 284 284 289 293 293 286 292 298 290 293 294 295 295 295 291 292 295 294 287 295 295 294 293 292 294 292 297 297 298 300 300 293 285 294 294 289 292 296 298 293 292 291 289 291 292 292 292 292 293 294 294 294 293 295 295 294 293
300 300 301 302 302 302 302 302 303 302 302 296 293 293 296 295 296 296 288 285 288 290 290 288 284 285 285 284 286 285 286 286 290 291 297 294 291 294 292 295 295 297 296 295 295 298 298 298 298 300 298 289 297 292 295 296 293 295 294 297 297 294 285 294 293 285 287 296 295 297 295 291 290 289 290 291 291 289 291 288 294 293 291 293 293 290 293
300 300 301 301 302 302 302 302 303 302 302 296 294 290 296 296 299 298 293 285 290 287 290 292 290 285 286 286 288 288 290 293 295 289 298 299 298 297 296 298 296 295 294 294 296 299 301 300 301 302 302 299 297 295 297 297 294 293 294 295 290 291 289 284 284 283 284 293 295 295 293 289 286 284 289 292 293 293 294 295 297 296 296 290 284 288 302
300 300 300 301 302 302 302 302 302 303 300 294 293 292 295 294 292 294 294 285 286 289 289 289 289 292 294 292 291 295 293 293 296 289 288 298 298 301 300 298 295 292 293 298 306 305 304 303 304 303 302 300 297 297 298 301 298 297 296 292 292 292 293 286 289 282 285 293 294 292 284 279 281 292 301 299 293 293 292 291 294 298 297 292 293 298 303
300 300 300 300 301 301 302 302 302 302 301 299 298 294 297 298 297 295 289 283 284 289 288 286 289 292 293 296 294 294 294 295 295 296 293 296 298 301 299 299 298 287 301 306 305 305 305 306 303 301 300 300 299 298 300 298 298 298 297 293 292 292 291 285 290 283 284 288 287 281 277 280 293 299 303 304 300 297 295 295 296 298 297 299 300 304 303
299 300 301 301 301 301 301 301 302 302 302 300 298 294 297 300 297 294 291 287 283 286 285 287 290 293 295 297 296 296 297 297 297 298 299 297 296 297 300 298 298 301 308 305 305 303 299 297 296 296 296 299 300 300 299 297 296 297 296 297 293 287 287 287 285 284 285 283 282 277 278 292 299 300 303 304 302 297 296 295 297 298 297 298 297 301 305
299 300 300 301 301 301 301 301 301 302 302 301 297 296 298 299 296 294 292 286 285 289 290 288 292 291 293 295 296 297 297 296 298 300 296 301 296 296 300 304 305 306 306 306 302 300 291 290 284 286 289 293 292 291 299 296 299 296 296 296 298 296 293 289 285 287 281 283 281 282 291 291 294 295 300 299 296 297 289 284 288 298 297 298 295 299 304
299 299 299 300 300 300 301 301 301 301 302 302 299 298 297 298 299 297 297 293 285 288 290 285 289 290 293 295 296 294 293 294 294 294 300 302 302 302 304 306 308 306 307 303 296 295 290 288 283 281 284 283 279 283 294 293 296 298 299 297 296 296 289 289 285 284 284 282 281 282 280 280 282 296 304 307 307 306 300 290 287 298 299 298 297 296 305
299 299 299 299 300 300 301 301 301 301 302 302 298 297 297 300 300 301 298 293 289 283 288 293 293 293 293 295 296 295 292 291 293 294 294 297 298 301 305 307 306 307 306 304 299 292 287 285 283 282 280 282 289 288 284 292 289 296 298 300 297 297 296 291 284 285 285 283 280 280 278 281 288 298 303 305 305 306 300 289 285 296 306 301 298 297 306
298 299 300 299 299 300 300 301 301 301 302 302 297 296 295 300 300 300 297 295 293 286 294 295 295 296 294 294 295 294 296 291 295 289 287 290 295 297 302 308 308 307 304 298 297 291 285 284 289 287 289 293 285 282 290 288 286 289 296 298 296 293 287 286 284 284 282 283 282 281 283 284 290 299 303 304 305 305 293 283 281 299 307 308 304 297 306
298 298 299 299 299 299 300 300 301 301 301 302 299 295 295 300 303 301 298 295 290 289 294 298 295 291 291 294 293 296 298 298 298 299 292 296 294 298 300 302 300 305 308 293 294 288 286 285 284 285 283 294 294 292 281 287 284 283 284 286 285 286 285 285 283 283 284 284 282 283 284 292 301 302 305 305 307 295 284 280 286 299 307 310 308 303 308
298 298 299 299 299 299 300 300 301 301 301 301 299 297 296 299 300 300 297 295 294 287 295 299 299 297 299 303 298 299 299 297 297 288 287 288 295 301 303 304 305 292 303 292 294 288 287 286 295 292 286 289 294 284 290 283 283 290 288 285 286 285 283 285 284 282 282 281 281 282 285 294 304 303 308 306 298 284 281 294 304 306 308 310 310 308 308
298 298 298 299 299 299 299 300 301 301 301 301 299 294 295 299 301 301 296 293 295 292 295 296 298 296 301 297 294 295 297 297 298 294 291 288 299 301 296 291 298 301 294 297 285 292 287 285 288 294 287 288 292 296 288 289 292 289 288 290 284 284 283 281 282 283 285 283 281 282 282 291 305 303 300 300 287 291 299 304 308 311 310 309 309 310 310
297 298 298 298 299 299 300 300 300 301 301 301 300 295 294 299 300 301 303 300 295 290 292 300 301 299 299 298 300 300 298 295 296 294 297 298 301 296 285 288 294 295 290 291 287 286 288 285 289 290 294 291 292 293 286 286 290 294 293 289 290 292 284 284 284 287 282 282 280 281 287 294 307 300 288 302 301 302 306 306 306 310 310 309 308 309 310
297 298 298 298 299 299 300 300 300 300 301 301 300 297 293 296 299 301 302 302 295 291 294 299 301 300 302 303 303 304 303 303 304 304 300 293 300 300 298 302 301 300 300 301 292 290 294 293 296 288 286 289 295 288 292 284 283 290 296 293 283 292 291 291 285 293 288 287 289 297 302 305 307 307 306 306 308 309 309 309 308 308 309 310 307 308 309
297 297 298 298 298 299 299 300 300 300 300 301 299 295 292 295 296 300 300 295 298 299 301 301 303 303 305 306 308 307 308 308 307 307 307 300 290 301 300 300 300 307 305 304 297 294 294 295 288 296 291 295 291 289 292 289 285 292 286 296 294 300 299 300 298 295 301 302 303 304 304 306 306 308 308 308 309 310 311 310 308 309 310 310 309 310 310
297 297 298 298 298 299 299 300 300 300 300 301 300 296 294 296 297 297 298 298 296 292 296 301 297 291 299 301 305 309 309 308 308 310 310 308 293 291 303 308 310 308 305 305 307 299 294 293 295 298 289 294 297 287 284 284 284 291 291 288 296 301 300 298 293 297 290 287 301 301 301 305 306 307 309 309 310 309 310 310 310 310 311 312 312 311 310
297 297 298 298 298 299 299 299 300 300 300 300 300 299 298 296 298 299 296 290 291 291 287 290 293 301 305 307 308 308 309 311 311 311 309 310 306 300 297 304 307 304 303 306 308 302 290 290 295 293 287 297 297 286 294 288 289 296 286 292 294 293 301 295 297 296 288 291 300 303 305 305 307 306 305 306 308 309 310 310 310 311 312 312 312 312 311
297 297 297 298 298 299 299 299 300 300 300 301 300 296 295 294 298 300 299 299 300 297 288 287 294 304 305 303 302 305 309 308 308 309 310 310 310 308 306 310 308 310 307 307 306 296 291 290 292 293 292 291 303 291 290 296 294 299 293 292 298 298 302 290 297 294 298 301 302 305 305 304 305 307 308 309 309 309 310 311 311 311 310 310 310 310 311
297 297 297 298 298 298 299 299 299 300 300 300 299 298 297 297 300 299 297 300 295 287 289 287 293 298 302 299 303 306 308 307 307 306 307 308 308 310 309 308 306 306 308 305 307 297 292 290 291 293 297 294 302 300 300 296 298 289 289 298 303 298 293 299 295 289 287 289 295 301 291 291 301 306 307 308 309 310 310 310 310 310 310 311 310 309 310
298 297 297 298 298 299 299 299 299 300 300 301 300 298 299 298 299 302 303 304 300 288 289 289 291 296 302 300 306 306 307 306 305 307 306 307 307 307 307 306 305 304 303 299 289 291 290 290 294 292 294 301 297 292 301 301 299 294 296 298 301 297 298 293 286 288 288 298 302 304 302 302 304 305 306 307 309 309 307 308 308 309 311 311 309 308 308
297 297 297 298 298 299 299 299 299 300 300 300 298 297 299 301 302 304 307 311 306 300 294 293 297 295 289 298 305 305 305 306 307 306 305 305 307 306 305 305 302 302 303 298 292 291 290 292 294 294 294 301 298 291 293 286 286 287 294 300 302 302 303 302 302 301 301 303 304 306 303 302 304 305 306 307 308 308 307 307 308 307 307 308 310 310 308
297 297 298 298 298 299 299 299 300 300 300 298 296 295 294 303 309 309 309 310 306 302 290 288 286 287 301 302 302 305 304 303 304 308 307 304 304 301 301 302 302 303 303 297 294 289 292 292 292 301 305 307 296 291 286 290 288 290 300 301 303 303 304 305 305 302 300 306 306 306 305 306 306 306 307 307 308 308 306 306 306 306 306 307 308 309 309
297 297 298 298 299 299 299 299 300 300 300 296 294 287 289 287 300 306 305 305 304 300 292 291 289 294 292 302 303 301 302 301 300 302 305 303 303 303 303 303 302 300 288 288 290 292 293 290 292 297 303 300 293 291 290 290 288 294 302 303 302 301 303 303 304 305 305 305 307 307 307 306 306 306 305 305 306 306 306 305 307 307 305 306 307 309 309
297 297 298 298 299 299 299 300 300 300 298 295 292 292 296 299 302 303 302 302 301 298 292 289 288 287 288 293 302 302 302 302 305 305 301 305 303 304 304 303 298 302 295 290 289 291 289 291 291 297 297 301 296 293 294 290 286 291 300 301 303 303 304 304 304 304 306 307 306 303 303 303 304 302 300 304 304 304 303 303 306 307 306 306 308 308 308
298 298 298 298 299 299 300 300 300 300 297 299 302 302 302 302 303 302 302 300 298 296 300 291 287 288 286 293 301 303 303 302 300 300 299 302 301 301 297 302 303 302 303 292 289 288 294 290 290 288 296 299 288 292 293 289 294 300 301 301 300 302 302 303 303 303 304 306 305 300 299 300 301 302 304 304 304 304 303 303 305 305 305 304 305 306 306
298 298 298 299 299 300 300 300 301 300 301 298 293 296 303 304 303 303 303 301 299 300 296 290 286 286 287 298 294 300 302 296 294 297 287 298 301 299 292 299 299 288 294 291 291 292 290 289 287 287 292 289 292 288 286 293 299 300 301 301 302 301 302 301 301 301 302 303 304 304 303 303 303 302 303 302 302 303 304 304 305 304 304 305 305 305 305
298 298 299 299 300 300 300 300 298 297 295 298 299 304 304 303 305 306 305 302 293 289 290 289 290 286 286 287 288 294 301 298 292 292 287 292 302 296 298 290 289 287 287 299 289 287 288 290 295 286 287 293 287 286 289 297 300 301 301 301 302 301 301 299 299 300 300 301 303 302 303 303 302 300 300 300 301 302 302 302 303 302 301 302 303 304 304
298 298 299 300 300 300 298 300 298 297 296 298 304 305 304 306 305 307 307 306 301 293 289 286 288 286 286 284 285 290 299 292 297 297 295 290 293 300 297 290 286 288 296 292 286 291 287 295 289 284 286 285 286 289 294 299 298 299 300 301 301 302 302 301 301 301 301 300 302 302 302 301 300 299 299 300 300 301 301 300 300 301 300 300 301 301 302
298 299 300 300 299 298 296 295 302 301 302 303 303 305 303 303 307 308 306 303 305 304 295 288 286 288 290 286 289 289 295 283 292 289 294 288 285 287 289 285 286 288 287 285 286 286 292 298 288 284 284 284 288 295 298 298 299 299 299 300 302 302 302 301 303 302 300 301 304 303 302 300 299 299 299 299 299 299 299 299 298 299 298 298 298 299 300
299 300 297 296 297 290 291 295 303 307 305 304 305 303 302 301 292 294 296 293 298 300 292 295 288 294 296 294 286 296 294 287 295 288 285 288 286 285 287 286 286 287 283 284 287 296 290 286 285 284 285 292 292 295 297 296 297 300 299 300 300 300 301 300 301 301 299 296 296 297 298 298 298 298 298 298 297 298 298 298 299 300 299 299 299 299 300
298 298 299 299 296 290 291 299 307 305 303 304 304 295 289 294 291 288 289 292 293 289 292 292 288 295 294 292 291 298 294 286 285 289 284 291 285 282 286 282 285 286 283 284 286 297 285 285 285 285 285 290 290 294 298 299 299 300 300 300 300 300 300 299 300 299 297 296 296 297 297 296 296 297 298 298 299 300 300 300 300 299 298 297 298 299 299
295 292 288 289 289 291 298 302 304 301 302 294 295 292 287 291 288 285 290 288 288 290 294 287 295 295 296 292 290 289 297 292 284 283 286 286 293 285 285 285 285 283 280 282 284 294 284 282 285 283 284 289 291 295 295 298 298 298 299 300 300 300 300 300 300 301 299 298 300 300 300 300 299 299 298 298 299 299 300 300 299 297 298 297 297 299 298
292 291 290 286 291 293 296 298 299 301 295 290 290 290 288 285 288 289 287 284 285 287 294 293 295 293 296 297 295 289 296 298 296 296 289 284 291 290 284 281 285 282 280 280 284 287 285 282 283 282 284 290 293 295 296 297 297 299 300 300 299 300 299 298 300 299 300 300 299 299 299 300 299 299 300 300 300 299 299 298 298 298 298 299 299 300 301
292 291 292 294 294 294 295 296 293 290 290 292 287 284 286 286 288 287 287 282 283 287 293 295 288 291 292 296 295 296 292 297 294 289 286 283 286 285 283 284 284 281 278 283 287 285 284 280 281 283 287 293 296 297 297 297 297 298 299 299 299 300 300 299 299 299 300 299 299 299 299 299 299 299 300 302 302 300 299 299 299 299 298 299 300 301 301
297 297 296 293 292 290 291 287 290 290 284 284 282 280 284 283 284 283 284 287 292 291 291 301 297 298 297 299 293 297 290 298 289 286 286 283 287 286 283 282 281 278 281 287 284 283 281 280 281 285 291 292 295 296 298 298 298 299 299 300 298 299 300 299 299 299 300 300 299 299 300 299 299 299 301 301 301 301 301 300 300 301 301 301 301 301 301
295 295 291 289 287 287 289 280 289 286 284 285 282 278 281 281 283 285 283 285 290 289 294 293 293 293 285 293 291 289 290 292 291 288 286 286 285 281 281 279 280 284 289 284 283 280 280 284 286 289 292 295 299 297 298 299 299 298 298 299 300 300 299 299 299 298 299 300 299 298 299 299 300 300 301 300 301 300 299 299 300 300 300 301 300 300 300
288 286 287 286 284 287 285 278 288 285 280 282 285 283 283 281 283 286 286 290 294 292 294 295 293 293 290 296 294 292 289 286 289 285 281 285 282 283 281 280 283 284 283 280 282 282 283 282 288 290 292 292 294 297 299 299 299 298 297 299 299 300 299 299 299 299 299 299 298 299 299 299 300 300 300 300 302 302 299 298 299 299 299 299 299 299 299
285 285 285 281 277 282 283 281 284 282 285 287 285 287 287 288 289 290 296 297 294 294 293 295 295 294 289 293 288 287 289 288 286 285 286 285 281 280 284 286 285 281 280 281 280 282 283 285 288 291 293 293 294 297 298 299 299 298 297 297 298 299 298 298 298 300 301 300 299 299 298 299 299 300 300 301 302 302 301 299 299 299 299 298 298 298 299
287 288 286 286 281 284 286 281 283 285 289 290 290 291 291 292 294 295 299 297 294 296 296 298 297 296 291 288 288 288 288 288 284 286 285 281 281 282 286 282 278 279 278 278 281 284 285 287 291 293 294 295 295 297 299 299 298 297 297 299 298 298 298 298 298 298 299 300 300 299 298 298 298 300 301 301 301 301 301 301 300 300 300 299 298 300 300
282 286 286 280 279 284 283 284 289 290 291 292 293 295 295 297 294 293 296 298 297 297 295 295 290 290 290 293 292 285 286 287 284 284 286 284 284 281 280 279 279 281 282 281 283 286 287 291 293 294 295 296 297 298 299 298 298 298 299 298 298 298 298 298 298 298 299 300 300 300 299 299 300 300 300 300 300 301 302 301 302 302 301 299 300 300 300
288 284 282 283 285 285 285 288 289 286 289 292 295 296 294 293 293 295 296 297 296 296 298 295 289 289 286 288 287 287 285 287 283 282 284 282 279 276 277 276 277 277 281 284 286 289 291 293 295 296 296 297 297 300 298 297 297 299 299 299 298 298 298 297 297 297 299 300 301 300 300 300 300 300 299 299 299 300 302 303 303 302 300 299 300 301 301
284 283 285 283 284 286 289 290 288 286 289 291 292 292 293 294 294 295 298 295 296 295 295 294 291 288 287 287 284 286 285 286 285 285 282 280 280 281 280 277 279 279 282 288 288 291 294 296 297 297 297 297 297 298 298 297 296 298 298 299 299 299 298 298 297 300 301 301 301 301 301 299 298 299 300 300 300 301 301 302 302 302 301 301 300 299 299
287 284 285 289 284 284 286 283 284 284 286 289 290 291 293 293 296 296 298 296 295 292 288 287 287 287 285 284 283 281 283 287 285 283 282 281 284 281 279 278 280 284 288 292 295 295 295 296 296 296 297 298 298 297 297 298 298 299 299 299 299 299 299 299 299 299 299 300 299 296 301 301 301 301 301 301 300 298 298 299 301 302 302 301 301 300 298
283 281 282 285 288 288 288 288 288 287 289 292 291 293 295 295 296 298 301 296 292 287 286 288 287 285 283 281 283 285 287 285 284 284 282 284 286 282 281 283 287 290 291 291 294 296 296 297 297 296 297 297 298 298 298 299 299 299 299 299 299 298 297 298 298 299 300 300 300 300 300 300 301 302 302 301 300 299 298 298 299 301 301 301 301 301 300
Wind_Speed
22 23 23 22 23 23 25 24 25 23 24 12 11 8 4 4 6 1 1 2 5 3 6 4 5 6 6 7 11 11 9 5 5 8 5 7 5 6 5 6 4 7 7 6 9 7 5 6 7 4 11 9 12 12 22 17 13 9 3 7 3 4 2 7 6 4 5 8 7 11 13 2 7 8 4 8 8 7 5 5 3 5 2 6 1 4 2
22 23 23 22 22 22 23 25 24 24 21 11 10 6 5 5 6 3 1 2 3 3 5 4 3 5 8 9 12 9 11 11 10 7 6 3 1 1 3 4 8 9 8 8 9 7 2 6 9 6 8 8 14 16 18 19 9 9 4 7 2 3 1 8 5 5 3 6 0 4 8 5 3 4 8 2 3 8 6 3 1 1 2 8 8 5 3
22 22 22 22 22 23 24 24 23 23 21 16 7 6 4 6 3 3 0 1 2 3 2 4 6 7 8 9 14 12 7 2 6 8 8 4 4 3 4 7 5 7 6 9 10 12 9 4 10 10 8 6 14 15 18 20 11 8 9 5 5 1 3 5 8 9 10 13 14 14 12 8 1 3 5 7 4 12 8 6 0 3 2 3 4 1 3
22 22 22 22 23 23 25 24 22 23 23 20 7 5 4 2 6 1 1 2 3 5 5 6 6 9 7 8 8 8 6 5 6 7 9 7 7 7 7 10 9 10 8 6 7 11 10 9 4 9 6 5 10 11 20 18 12 8 18 12 8 0 2 2 3 6 2 1 1 3 2 2 4 5 6 5 7 4 6 4 4 6 2 0 4 8 1
22 22 22 22 22 24 24 25 24 23 24 24 8 4 3 2 2 4 5 2 6 6 2 3 2 3 3 4 3 4 4 8 9 4 3 5 5 3 8 7 4 4 4 3 5 8 10 12 11 9 3 4 5 13 18 14 16 10 14 12 4 2 4 3 2 2 5 5 3 4 7 3 3 3 6 4 8 5 2 8 6 5 5 5 0 6 7
21 22 22 22 23 23 24 24 23 24 25 27 7 3 2 3 0 1 1 3 6 6 3 4 4 7 1 4 1 5 7 9 5 5 6 4 7 4 3 9 12 11 9 5 4 6 7 2 1 8 6 7 6 10 14 12 12 6 3 6 2 4 5 6 4 2 3 9 5 8 8 5 4 5 4 7 11 5 4 4 5 6 5 2 3 7 6
20 21 22 22 22 22 23 24 22 24 26 22 5 4 2 1 3 4 2 3 5 4 14 8 11 12 6 3 2 3 5 9 7 5 4 2 5 10 2 4 5 5 6 5 4 5 2 3 2 3 2 1 8 6 12 6 9 8 5 4 1 3 1 2 1 1 4 4 12 8 15 9 6 8 6 8 11 6 4 4 4 7 3 6 6 3 4
20 21 21 21 22 22 22 23 23 23 25 14 6 5 5 5 6 4 2 6 12 12 5 3 2 5 4 3 4 2 2 4 7 5 1 2 4 1 4 7 9 9 4 5 1 4 3 3 4 5 4 5 3 4 2 4 8 6 2 2 2 6 2 2 1 1 2 1 3 15 17 13 8 9 9 6 9 5 5 2 3 6 3 2 5 4 1
20 20 20 21 22 22 22 24 23 21 21 6 7 4 5 4 4 6 9 10 7 9 8 4 4 1 1 2 2 1 2 4 5 7 7 4 2 3 6 9 6 8 2 6 6 7 6 11 11 9 8 3 3 2 2 4 5 6 3 3 2 4 2 4 1 0 1 1 9 5 2 9 9 9 10 5 7 6 2 2 2 2 5 2 3 2 1
21 20 21 21 21 21 21 22 22 21 18 6 6 4 5 5 5 6 5 6 6 9 11 7 2 3 1 2 3 2 6 5 10 6 3 2 4 3 7 7 5 7 2 3 6 9 8 15 12 11 11 9 2 3 6 5 3 3 3 3 3 3 2 2 1 5 1 1 8 4 5 7 4 6 5 7 4 4 2 3 4 2 3 3 3 2 8
20 20 20 20 20 20 21 20 20 20 13 8 7 6 7 6 7 5 2 7 6 6 10 9 9 5 5 2 6 4 7 7 1 2 2 3 5 4 8 2 3 5 4 2 7 11 12 12 14 11 8 10 1 1 2 6 2 5 4 3 1 3 2 1 1 3 0 4 4 2 6 3 2 2 4 1 4 6 4 3 4 2 3 3 6 7 6
20 20 20 20 20 20 20 20 21 20 14 8 7 7 7 7 6 4 4 6 9 8 7 7 10 10 13 9 3 5 9 11 8 2 3 3 3 7 7 5 2 3 4 8 8 9 11 8 4 5 11 11 3 3 2 6 2 8 6 6 2 3 2 2 1 2 0 4 6 6 2 1 3 7 5 2 2 5 6 4 6 5 6 4 8 8 7
20 20 20 20 20 20 20 20 20 20 18 10 8 8 8 8 4 5 4 4 6 11 11 12 16 13 12 9 8 9 9 9 10 5 5 3 3 3 2 1 1 5 6 9 9 9 5 2 3 5 6 2 1 3 3 6 5 6 5 4 3 0 1 0 2 3 3 4 2 3 2 3 4 5 4 5 3 2 6 0 3 7 9 8 6 5 6
20 20 20 20 20 19 19 20 20 19 20 15 8 8 8 7 5 5 3 4 9 8 10 13 10 14 18 12 9 9 9 11 9 4 3 1 2 5 5 3 4 5 8 5 5 2 4 5 2 2 3 1 1 1 2 5 4 5 6 5 3 3 1 1 1 1 3 2 4 2 1 2 4 3 3 3 1 3 3 6 4 3 6 7 6 6 5
19 20 20 20 20 20 20 20 20 21 20 17 8 8 8 8 5 4 3 3 7 12 8 4 12 15 17 12 11 9 7 7 10 9 8 3 2 4 6 10 7 8 4 4 4 2 2 2 2 2 3 2 3 3 3 3 2 3 4 5 5 2 3 3 4 2 5 4 3 2 2 1 3 2 1 1 1 1 2 6 4 4 1 6 6 7 9
19 20 20 20 20 19 20 19 19 19 19 19 8 8 8 7 8 4 3 4 6 8 5 7 12 11 12 10 10 9 8 5 8 5 3 2 6 11 13 10 5 6 5 1 2 3 2 0 0 2 1 1 1 2 3 3 3 2 1 2 4 5 4 4 5 0 2 2 2 2 2 4 4 1 3 3 4 5 1 5 1 3 9 5 6 6 13
19 20 19 20 20 20 20 19 19 20 19 19 10 9 8 9 7 3 5 3 2 7 15 15 10 8 9 8 10 8 8 6 8 5 7 8 7 7 7 6 3 5 6 6 4 3 4 3 2 1 0 0 2 1 3 3 3 4 3 1 4 1 2 3 3 1 0 3 2 0 0 0 3 2 1 3 1 3 7 4 4 5 9 6 4 6 15
19 19 20 20 20 19 20 19 20 20 19 19 10 8 9 8 5 6 4 4 5 7 5 4 10 10 5 5 9 8 5 5 3 2 2 3 2 5 9 3 3 2 1 5 3 3 4 1 0 0 1 2 2 2 2 2 4 3 4 2 0 1 1 3 1 1 1 4 1 1 2 4 2 1 0 3 1 5 6 8 1 5 4 6 3 7 14
19 19 19 20 19 19 19 19 20 20 20 19 12 10 6 6 9 5 4 5 3 6 13 14 10 10 11 8 4 6 4 6 5 2 5 5 2 12 9 5 2 2 3 1 2 3 4 4 3 2 2 1 1 1 0 3 1 2 4 1 1 0 2 1 2 1 2 2 5 1 2 3 1 2 3 3 3 1 2 2 3 0 5 7 6 8 4
19 19 20 20 20 19 19 19 19 19 19 20 12 8 11 11 9 8 5 5 2 8 16 14 6 8 5 7 9 7 9 8 3 3 4 4 8 12 2 2 6 5 6 4 3 1 3 3 4 2 3 3 1 1 1 1 2 4 3 2 2 3 2 1 2 1 0 1 3 3 1 3 0 2 5 3 4 1 2 1 5 5 5 7 6 11 8
20 19 20 20 20 20 19 19 19 19 18 19 14 9 11 5 6 8 5 5 5 9 11 6 4 12 12 13 13 11 8 9 8 5 4 4 8 3 3 1 4 2 3 2 3 2 1 2 5 1 1 1 5 2 0 0 2 1 5 3 1 2 2 0 2 2 1 1 1 1 4 2 2 3 2 0 3 4 2 2 5 5 5 5 6 5 5
20 19 20 20 20 20 20 19 19 19 18 18 17 7 9 9 9 7 7 6 6 6 9 19 14 16 18 16 16 13 13 13 11 4 2 2 5 2 1 3 2 1 1 1 3 3 2 2 2 2 3 3 2 1 4 3 1 3 2 3 2 3 5 1 3 3 2 1 1 2 3 4 6 6 4 3 4 4 6 6 4 5 4 2 5 3 4
20 20 20 21 21 21 20 20 20 19 19 19 14 6 9 11 11 9 8 7 6 9 10 13 13 13 13 14 15 16 14 11 10 6 3 4 3 2 1 1 2 0 1 1 3 4 3 2 1 1 1 3 3 6 6 1 1 5 2 5 4 1 5 4 7 3 6 7 6 5 6 6 6 5 4 5 6 6 7 6 7 5 4 3 5 3 4
20 20 20 21 21 21 21 20 20 19 19 18 13 8 9 8 10 9 7 6 4 9 10 3 3 7 6 13 13 2 7 9 9 5 4 5 2 2 2 1 0 2 1 4 1 2 1 1 2 1 2 2 3 0 1 4 1 2 2 4 3 3 4 3 5 5 4 1 5 6 7 9 7 7 6 7 6 6 5 6 6 4 4 5 3 4 3
21 20 21 21 21 22 21 21 21 20 19 20 16 9 9 9 6 4 7 4 4 2 4 9 9 12 9 14 14 3 7 9 8 5 7 4 5 2 2 3 2 1 3 3 1 5 2 1 2 2 3 1 0 2 1 5 4 1 3 3 4 4 5 4 4 6 5 2 2 2 3 8 3 6 6 5 5 6 6 5 4 4 3 3 3 3 2
21 21 21 22 21 22 21 21 21 21 21 21 18 9 8 9 9 7 7 7 7 4 3 5 9 12 11 16 14 10 13 8 6 10 10 10 11 8 6 1 4 6 7 6 2 5 2 0 0 1 1 1 2 1 3 2 6 2 5 1 2 3 2 0 2 5 7 5 3 2 4 4 6 5 7 6 5 5 6 6 6 6 6 5 5 4 2
21 21 21 22 23 22 22 22 22 21 22 21 13 9 9 9 9 7 6 5 5 3 1 5 7 15 11 18 17 11 11 6 4 3 5 7 1 2 3 3 6 2 7 4 6 5 2 1 3 2 2 1 5 2 1 3 3 2 1 2 5 3 2 1 6 7 3 3 2 1 4 1 3 5 5 6 6 5 4 4 5 5 6 6 4 4 5
21 21 21 22 23 23 22 23 21 22 21 22 14 10 9 9 8 7 8 8 0 2 5 6 9 14 17 14 9 8 10 4 2 0 2 1 3 5 4 5 3 2 4 1 4 2 2 2 2 4 4 1 3 1 0 2 1 4 5 5 3 3 2 1 5 7 4 3 3 3 4 4 4 4 6 8 8 3 3 4 4 6 4 4 5 5 3
22 21 21 22 23 24 23 23 22 20 22 19 11 12 9 9 9 7 8 1 2 3 4 8 9 7 4 10 17 15 4 5 4 1 3 3 3 3 4 4 2 2 4 2 0 2 2 1 0 1 0 2 4 1 3 4 2 2 1 4 2 1 3 5 4 6 4 2 2 2 4 5 5 6 4 4 6 7 6 6 6 6 7 7 3 1 3
22 22 22 23 23 23 23 22 21 19 20 11 8 4 3 2 1 1 2 3 3 2 2 4 6 4 7 7 8 12 7 4 3 1 2 0 1 4 1 0 1 2 1 1 1 2 1 1 1 0 0 0 2 1 2 1 1 1 2 4 2 3 4 4 3 3 3 2 3 5 7 6 6 5 4 5 5 5 5 5 5 6 7 6 7 4 6
23 22 23 24 24 23 24 22 20 20 16 7 5 1 1 1 0 3 6 6 6 3 2 2 6 6 7 5 5 10 14 1 4 1 1 2 5 2 2 0 0 1 3 4 3 0 1 1 0 1 0 2 3 2 3 2 1 1 0 2 5 3 4 4 4 3 3 3 4 5 6 5 4 7 8 6 7 7 6 5 5 6 4 7 7 7 7
24 24 24 24 25 23 23 22 21 16 7 6 5 3 1 2 1 6 8 5 7 4 2 3 4 2 3 4 4 5 11 3 1 2 1 0 0 1 1 1 1 1 2 1 1 0 1 1 0 1 1 1 4 2 2 3 3 0 1 1 2 3 3 3 2 3 7 6 6 9 8 7 6 6 4 5 5 5 5 6 4 1 3 2 6 6 6
23 24 25 24 25 25 24 23 22 14 7 11 16 23 26 29 25 21 11 8 2 4 3 1 3 3 2 5 8 10 4 0 1 1 1 0 1 0 1 1 0 1 2 2 1 1 2 1 0 1 0 2 3 1 2 2 2 3 1 5 4 5 7 7 6 6 4 4 4 5 3 3 3 4 5 5 5 5 4 4 8 9 9 4 5 7 8
24 24 25 25 25 25 25 24 22 20 16 8 7 6 6 14 15 16 5 4 3 3 2 1 2 2 5 5 3 6 2 1 3 4 1 2 0 1 1 0 0 1 1 1 1 0 2 2 1 1 2 2 3 3 2 1 2 2 4 4 3 3 5 5 4 5 6 6 6 4 4 2 2 3 4 6 6 7 8 11 12 13 11 8 7 7 6
24 26 25 27 26 25 27 24 11 4 4 4 5 1 2 1 4 5 7 3 1 1 1 3 2 3 4 3 3 5 3 1 1 0 3 3 1 2 1 1 1 1 3 0 1 3 1 0 1 2 3 2 4 2 1 3 5 5 4 4 3 4 4 6 4 4 5 4 2 4 2 2 4 8 9 8 8 8 11 10 9 10 10 9 8 7 7
26 27 27 26 28 22 12 7 5 4 3 3 1 2 3 4 1 1 3 2 2 1 1 2 1 3 1 4 4 3 4 5 3 2 2 0 2 1 1 1 1 2 1 1 1 2 1 2 2 2 2 4 2 1 6 9 6 5 3 2 3 3 1 4 4 3 2 2 4 4 7 7 9 9 7 9 8 8 8 8 8 7 7 7 7 6 6
27 28 29 25 12 2 4 3 4 4 1 2 5 1 2 1 1 1 2 3 3 1 2 2 2 5 2 4 2 3 3 4 4 3 1 1 1 1 1 2 0 1 3 1 1 2 0 1 3 3 2 2 1 3 5 5 8 6 4 3 4 4 1 3 1 2 3 1 2 2 2 9 8 7 9 7 7 6 7 8 6 6 5 5 5 5 5
28 28 10 3 2 2 1 1 1 4 5 7 4 1 1 1 1 1 1 2 2 3 2 2 4 4 3 3 5 6 3 4 2 1 1 1 1 1 0 1 1 1 0 0 1 0 1 1 2 3 1 1 3 4 4 5 4 5 5 3 3 5 7 6 8 8 5 6 6 7 8 7 7 5 7 6 5 7 6 4 5 5 5 4 4 4 4
20 7 3 3 2 1 1 2 5 11 8 4 2 0 2 1 1 1 3 3 1 1 3 4 5 4 4 5 7 4 0 1 4 3 2 2 1 1 1 1 2 1 0 1 2 2 1 0 2 2 2 1 1 2 3 5 5 6 6 5 5 6 7 6 6 7 7 4 5 5 6 7 6 5 4 5 5 6 5 5 5 4 4 4 4 5 5
5 6 3 4 2 2 7 8 12 9 2 1 1 1 1 1 2 2 1 1 1 2 2 4 4 4 6 7 4 5 1 2 3 4 2 2 0 1 1 0 0 1 1 1 1 0 1 1 1 2 2 1 1 0 1 4 5 5 5 5 5 6 6 5 3 3 3 4 6 7 7 7 5 5 4 4 6 6 5 4 4 4 5 4 4 5 4
5 4 5 2 4 5 6 9 7 2 1 1 0 1 0 1 2 1 1 1 1 2 3 3 1 2 1 1 1 4 2 0 1 1 0 0 2 0 1 0 1 1 1 0 1 1 1 2 2 3 4 5 4 3 5 5 5 5 5 5 5 5 7 5 2 4 8 7 7 7 7 7 6 5 5 6 7 6 5 4 4 5 5 5 5 4 5
5 5 6 8 9 9 8 3 2 1 1 1 0 1 2 2 1 1 1 1 2 0 2 0 1 2 2 1 2 0 1 1 0 0 0 1 1 1 1 0 0 0 0 1 0 0 0 1 2 1 2 6 6 5 5 6 4 5 5 5 4 3 6 5 6 7 6 7 6 7 8 8 6 5 4 6 5 5 5 4 4 4 4 2 3 4 4
18 15 8 4 3 3 2 1 1 1 1 1 1 1 1 1 1 2 1 1 1 1 1 1 2 1 2 1 3 1 2 0 0 1 0 0 1 0 0 1 0 0 1 1 1 1 2 2 3 1 2 4 5 6 5 6 4 5 5 5 5 5 7 8 6 5 7 7 7 7 6 6 5 5 5 5 5 5 4 4 5 5 4 4 3 4 5
9 5 3 2 2 3 1 1 1 1 1 0 2 1 1 2 2 0 1 2 0 1 3 2 2 2 3 1 2 1 1 2 0 0 1 0 0 0 0 0 1 2 0 1 0 2 3 2 2 3 2 2 3 7 7 6 6 5 5 4 4 3 6 6 5 5 6 4 4 4 5 5 5 4 4 4 6 5 5 5 6 7 5 4 4 4 3
3 1 2 1 0 1 1 1 1 1 2 2 1 2 2 3 3 2 1 3 1 4 1 2 1 3 4 3 0 1 1 1 0 1 0 0 1 0 1 1 1 1 0 1 1 1 3 1 2 4 4 4 2 5 7 7 7 6 4 3 4 4 6 6 6 5 4 5 6 5 4 4 5 4 3 4 5 5 4 3 4 6 5 4 4 5 3
1 2 1 1 3 2 1 1 1 1 1 1 2 4 4 4 3 2 2 2 2 4 4 2 1 2 4 3 0 2 1 0 0 1 0 0 1 0 0 1 0 1 1 1 1 4 3 3 2 3 2 4 4 4 5 6 6 5 4 5 5 6 5 5 5 6 4 5 5 7 5 5 5 5 5 5 6 5 3 3 4 5 5 5 5 4 3
3 2 1 1 2 2 1 1 2 2 1 3 4 5 5 4 4 2 2 2 3 3 2 2 2 1 2 2 2 3 1 0 0 1 1 1 0 0 1 2 0 1 1 0 3 4 3 3 3 3 3 4 4 5 7 7 6 4 3 5 7 7 6 6 6 5 3 3 6 7 6 5 5 5 5 4 3 3 4 4 4 4 5 5 4 5 3
3 1 1 1 2 1 3 3 2 5 5 5 2 1 3 4 3 6 8 8 5 4 4 3 4 3 3 2 1 2 2 1 1 1 0 0 1 1 1 1 1 1 0 2 4 5 5 4 5 4 4 5 5 4 5 5 4 3 6 7 6 6 6 6 6 4 3 2 4 5 5 5 6 4 4 4 4 4 4 5 5 4 4 4 4 6 7
3 2 2 2 2 2 2 3 2 6 7 7 2 0 2 5 5 6 6 6 5 3 5 3 1 2 2 1 1 0 2 1 1 1 0 0 1 1 0 0 1 2 2 2 6 4 6 5 5 5 5 4 2 3 5 5 3 2 7 7 6 6 7 7 6 4 2 3 3 4 4 5 4 4 4 4 4 4 4 5 6 4 4 4 5 5 6
2 2 1 2 3 4 4 7 8 5 3 2 1 2 4 2 1 3 3 5 5 6 6 4 1 1 2 0 1 0 2 1 0 1 1 0 1 1 0 1 1 1 3 4 5 4 5 6 6 6 5 5 3 4 5 3 3 6 6 6 6 7 7 6 4 0 1 3 3 4 3 2 3 4 6 5 4 3 3 2 4 5 4 4 4 4 4
1 1 2 2 4 4 5 4 4 7 7 3 4 4 1 2 2 4 6 4 5 5 3 0 1 1 1 0 1 0 1 0 1 0 1 1 1 0 2 1 2 2 3 6 7 7 6 5 6 6 7 4 4 5 4 2 3 7 5 6 6 7 6 5 3 1 2 5 5 4 1 1 3 3 5 6 5 3 3 1 3 4 5 5 6 5 4
1 2 3 3 5 8 8 8 8 8 7 2 2 1 2 1 3 4 4 4 4 3 4 2 1 1 1 2 1 1 0 1 0 1 0 1 1 1 1 3 3 3 5 7 7 6 7 6 7 7 5 4 3 3 3 0 3 6 8 8 7 6 6 6 2 2 1 4 4 1 0 2 2 1 4 5 4 4 3 2 3 4 4 4 6 6 5
Wind_Direction
345 344 343 343 342 341 340 344 345 344 344 345 348 319 301 316 281 282 317 150 204 238 245 246 251 250 260 295 283 282 278 255 245 259 262 274 267 269 244 254 265 253 233 264 270 259 288 240 214 186 171 183 210 215 218 224 231 243 201 159 249 70 102 122 150 164 170 191 180 209 236 247 178 199 203 173 199 189 157 166 194 169 201 156 83 175 258
345 345 346 346 344 341 342 344 343 343 345 340 323 310 302 294 288 302 112 96 72 253 271 276 249 270 283 282 287 293 278 272 291 290 272 243 327 310 306 299 249 263 270 288 277 265 255 255 231 236 166 188 202 221 212 216 232 223 165 184 207 169 270 121 140 149 130 182 336 234 243 228 214 172 209 165 175 182 203 202 73 105 235 147 127 188 260
346 347 348 347 345 344 344 342 340 339 335 338 323 303 297 285 248 233 239 40 118 237 220 269 281 281 293 303 300 302 279 264 280 288 291 301 275 267 241 236 269 273 285 281 279 276 246 287 234 255 174 183 193 213 211 211 223 240 151 182 185 147 191 106 153 166 165 177 188 198 206 203 261 162 181 215 208 184 200 217 303 157 275 125 116 145 258
347 348 349 349 348 346 345 342 339 338 334 337 330 296 290 313 317 31 276 176 208 240 265 272 272 287 296 298 282 286 297 312 297 282 283 241 252 242 264 287 276 265 264 267 274 281 268 243 238 240 184 174 190 196 206 206 214 237 158 177 160 191 168 104 130 143 178 246 21 36 68 109 257 198 199 210 236 203 173 123 105 182 231 212 214 162 170
348 349 350 350 349 348 347 345 343 340 336 335 329 283 220 296 290 349 308 277 215 249 212 242 221 262 15 301 348 300 303 300 304 223 234 205 212 251 236 249 280 265 258 265 290 282 291 289 249 246 255 163 178 188 199 203 220 199 166 172 151 65 150 236 132 211 194 160 183 165 186 175 199 184 209 216 234 208 105 169 210 190 102 251 276 138 114
347 349 351 351 350 349 348 346 345 342 340 334 335 316 337 322 348 231 208 282 294 309 282 197 253 254 286 269 312 278 304 306 298 285 228 130 214 237 231 222 236 259 273 321 305 284 269 257 100 271 248 169 186 191 192 204 207 180 165 142 119 131 156 214 165 276 236 162 210 160 188 215 199 225 190 205 233 212 159 215 195 128 127 181 220 135 136
349 349 350 351 351 351 349 348 349 347 342 333 312 336 332 299 301 286 51 327 276 241 275 269 268 277 245 266 261 285 275 285 277 273 340 245 213 204 296 279 278 273 328 298 244 320 34 333 316 258 269 240 176 171 186 205 154 173 154 161 111 95 195 132 112 282 307 233 204 179 177 194 215 225 219 206 230 200 155 201 204 126 159 152 150 133 172
349 349 350 353 352 352 351 350 350 347 344 332 2 24 339 2 338 324 265 249 279 283 265 259 240 248 280 242 232 212 254 276 302 302 248 303 323 224 252 310 340 331 327 335 78 277 315 249 277 299 63 315 154 150 140 167 194 134 129 89 349 93 300 37 80 35 297 256 347 180 178 179 201 217 229 218 228 201 172 152 279 172 198 135 121 130 113
349 348 351 354 353 351 351 351 352 350 348 358 9 347 40 319 286 297 313 315 301 313 307 245 248 307 214 220 294 214 258 272 276 286 252 266 247 333 317 332 360 318 340 358 305 287 300 298 294 310 311 243 177 123 205 153 141 125 79 70 359 86 278 14 2 214 307 335 52 11 80 171 175 202 231 222 195 210 178 168 221 146 196 128 54 39 68
347 348 349 351 351 351 351 351 352 355 349 348 344 333 334 294 268 287 304 302 305 317 313 324 131 304 244 234 267 282 293 300 313 308 291 149 212 276 299 327 352 296 291 234 281 296 296 274 288 293 287 283 5 72 157 148 117 110 94 84 91 122 87 43 353 95 270 303 70 18 57 60 183 238 237 211 208 166 135 163 133 174 153 122 123 208 172
346 346 347 347 350 352 352 352 353 355 355 358 343 321 317 325 325 317 256 302 296 331 325 325 358 345 358 241 309 258 273 296 339 60 333 355 4 327 287 309 260 290 283 249 211 238 248 263 280 277 290 312 121 69 78 142 101 101 123 81 20 109 104 270 190 114 234 52 47 41 57 89 227 236 261 259 196 160 160 197 165 203 112 198 168 158 164
344 345 346 347 350 352 350 350 353 353 355 343 322 304 309 310 300 276 318 327 300 317 335 302 326 313 357 4 245 337 353 358 357 165 252 293 285 266 265 278 310 296 284 312 310 296 288 274 287 317 328 297 149 151 65 168 106 98 112 120 110 107 118 233 245 84 41 50 45 47 56 217 245 279 277 5 50 165 161 208 179 185 157 107 93 142 137
341 344 344 346 349 350 351 349 348 349 352 346 329 318 313 304 295 315 313 314 295 328 333 321 312 314 338 359 20 22 4 346 328 295 254 268 287 306 287 272 250 260 304 306 312 320 325 352 323 299 269 111 91 194 180 155 133 100 117 108 107 99 114 260 4 108 18 52 69 100 220 248 280 289 331 347 38 132 160 260 231 170 170 149 131 171 156
338 341 341 346 348 348 349 349 348 348 348 349 332 317 306 312 323 322 337 326 308 304 308 293 305 334 339 347 7 10 357 350 329 327 335 14 295 299 298 242 247 265 285 293 306 323 12 26 350 356 103 71 44 314 188 136 140 127 124 134 155 139 121 81 351 79 128 167 120 185 336 7 331 1 360 38 69 323 153 181 258 198 163 147 149 134 97
336 338 341 343 344 346 346 347 347 347 346 349 324 320 315 308 311 317 285 276 298 302 289 307 339 323 324 333 355 345 0 336 354 355 339 321 305 293 294 274 273 275 314 356 331 14 90 359 323 62 119 86 161 233 169 159 123 151 150 156 180 158 173 203 93 312 126 124 82 9 27 278 275 240 246 344 192 264 167 98 327 309 185 154 168 140 131
333 336 339 341 341 342 344 345 344 343 345 347 334 325 304 294 305 271 288 303 307 313 288 320 318 308 323 322 342 336 338 351 352 338 314 349 336 346 333 299 265 318 322 350 343 4 336 283 305 58 122 154 164 157 172 121 132 243 190 206 187 215 170 92 122 175 65 74 108 182 152 238 208 292 328 302 342 348 3 74 287 313 352 322 175 139 147
332 333 336 339 339 340 342 342 342 345 344 349 338 325 300 308 300 310 325 286 220 253 276 287 287 320 311 310 337 353 345 4 347 2 344 352 344 285 304 300 7 10 8 38 357 355 354 329 351 90 351 236 132 193 118 132 137 177 207 145 246 46 115 56 31 74 236 148 140 142 213 211 270 259 280 296 350 11 71 169 244 295 330 355 351 166 152
331 331 333 335 337 338 339 341 342 344 344 345 341 322 294 297 315 344 298 292 309 288 265 302 346 324 317 327 320 320 318 340 6 325 251 262 264 331 333 329 143 116 101 45 320 13 302 264 67 257 239 259 106 82 213 147 128 172 174 186 138 63 343 103 178 170 263 148 48 22 321 287 265 227 325 349 50 74 117 194 237 273 351 354 354 138 159
329 329 330 332 333 336 336 338 340 341 343 344 340 317 287 307 312 304 281 272 302 280 283 300 281 261 259 285 301 296 318 325 322 358 324 343 352 328 311 263 352 357 52 214 19 8 354 314 30 40 337 313 108 191 95 95 177 120 145 165 235 39 91 97 96 28 277 200 109 190 237 242 233 296 47 9 60 75 205 230 225 256 28 2 49 84 48
327 328 328 329 331 333 334 335 336 340 341 345 345 318 290 296 287 276 240 278 273 276 288 282 260 271 320 326 307 315 326 324 337 360 21 320 313 330 39 346 346 18 2 357 79 295 54 343 307 350 26 335 338 260 356 117 148 163 175 167 128 205 108 208 167 237 21 37 90 75 110 273 6 75 16 32 104 214 213 269 16 48 64 58 42 91 91
325 326 326 326 328 331 333 333 334 337 340 341 344 327 315 307 315 328 303 249 294 310 300 271 261 293 298 284 272 272 279 271 294 351 357 344 312 346 67 341 319 352 347 38 29 335 103 268 305 356 254 239 296 17 103 89 31 69 135 168 152 195 120 250 261 162 177 152 135 160 226 254 346 106 154 271 149 191 182 109 61 23 55 62 74 47 78
323 324 325 325 325 328 329 331 332 334 336 337 338 323 296 302 313 309 316 314 274 241 247 284 288 281 274 263 259 250 241 249 261 287 42 14 308 75 248 284 275 338 295 311 19 38 2 278 301 36 13 317 336 331 322 67 138 305 37 88 124 309 130 188 139 316 110 172 181 288 307 67 50 83 116 94 44 51 77 84 84 78 37 72 80 53 34
321 322 323 323 323 325 327 328 329 330 332 334 334 320 302 308 304 311 314 291 256 249 263 272 280 272 263 258 244 229 226 226 239 251 211 133 318 328 219 306 336 304 275 321 94 155 220 265 287 226 18 39 21 330 343 95 98 25 19 327 145 298 137 160 83 43 75 67 67 357 324 47 53 49 68 77 61 51 64 66 66 43 66 64 112 89 55
320 320 321 321 321 323 324 325 326 327 328 329 330 314 305 296 289 301 294 256 282 314 307 261 339 315 305 325 346 259 214 224 228 219 141 136 125 314 292 216 175 339 316 16 115 144 205 164 207 304 99 306 16 71 210 10 339 273 15 340 353 358 23 1 103 159 68 18 23 58 296 311 62 71 46 49 49 58 56 57 59 61 67 78 95 133 153
319 319 320 319 319 321 321 322 324 324 326 326 325 307 290 286 270 291 313 325 318 337 296 305 296 252 292 322 312 243 216 207 195 156 156 185 158 165 222 238 160 199 296 293 18 44 39 38 344 46 81 282 103 312 266 111 321 335 76 337 14 314 355 27 48 66 96 157 113 174 126 259 332 54 60 53 52 45 43 49 55 71 70 83 101 117 79
318 318 317 316 317 318 319 319 321 322 323 323 322 312 304 281 288 291 273 257 257 260 273 301 285 312 336 331 319 305 293 305 166 176 178 193 202 204 231 189 238 176 188 189 156 143 165 41 138 76 76 286 98 147 347 115 173 237 99 338 277 211 320 118 294 100 101 88 47 120 116 27 17 33 40 36 42 60 42 30 28 29 37 30 28 43 80
317 315 314 315 315 317 317 318 318 320 321 321 316 295 281 277 264 258 260 292 336 321 2 288 299 302 331 316 293 289 283 267 165 234 206 198 133 198 217 270 270 174 211 215 185 151 155 177 99 54 268 230 149 223 77 44 24 81 32 322 342 76 358 305 91 82 83 150 189 252 102 68 21 28 31 30 12 54 56 41 34 31 29 19 29 19 33
315 314 312 312 313 314 315 316 317 319 321 320 309 289 265 260 253 238 244 244 125 242 279 282 303 298 308 276 267 302 281 156 121 316 43 232 193 234 225 265 264 27 297 45 6 21 114 83 242 198 166 68 50 335 61 152 53 14 18 10 348 82 301 109 138 148 193 225 204 198 137 114 101 77 39 29 6 47 65 44 44 20 17 43 47 24 29
313 312 311 311 310 311 313 314 316 319 321 325 307 299 269 229 238 241 250 169 136 279 270 272 277 282 293 313 312 300 253 139 149 113 224 250 241 243 237 225 304 315 313 331 78 110 108 189 184 109 184 206 111 320 41 23 36 52 292 284 337 13 22 64 86 96 98 154 141 113 103 114 91 69 55 40 36 40 55 37 30 25 25 1 21 40 59
312 311 310 309 308 309 311 311 313 316 322 322 317 297 317 67 53 119 12 35 3 351 303 333 323 276 312 312 289 305 311 145 114 193 341 137 267 281 216 89 330 334 298 332 151 58 292 147 310 232 209 318 120 142 81 201 86 257 280 287 254 76 39 40 51 109 156 165 113 109 120 120 110 110 93 56 36 60 61 43 27 17 5 14 3 357 52
311 310 308 306 306 307 307 307 307 310 317 312 320 306 298 253 213 62 37 37 17 329 279 241 253 290 305 251 275 288 286 277 132 139 235 241 248 241 304 357 8 32 30 348 35 46 77 52 295 305 170 58 110 100 152 118 83 309 249 73 75 83 87 49 30 41 83 96 108 76 64 59 91 74 48 47 47 34 33 19 10 24 23 8 32 55 49
309 308 306 305 305 305 303 302 303 304 293 281 252 236 258 281 333 321 313 347 356 309 253 298 304 286 279 296 278 305 298 330 12 142 246 185 295 280 359 77 199 30 127 201 212 22 1 231 104 293 95 359 70 80 69 81 102 231 268 274 90 110 108 104 81 47 50 46 73 66 61 59 61 98 98 66 62 51 43 2 324 26 8 47 60 46 53
309 306 305 303 302 301 299 296 294 292 270 265 266 274 276 276 272 267 272 279 280 238 255 245 260 291 267 286 311 305 264 127 285 90 335 286 238 214 287 268 272 91 203 87 336 160 211 140 118 10 245 111 79 81 85 94 199 240 83 71 44 56 65 54 50 42 56 63 70 106 98 83 72 65 98 101 78 62 25 352 7 11 0 17 67 64 45
306 304 302 301 300 298 295 292 289 290 284 267 266 238 238 238 246 250 215 167 219 236 230 240 268 269 270 287 303 277 257 272 287 110 274 297 208 96 228 46 136 69 301 118 255 41 329 58 91 218 348 55 81 77 58 179 214 52 58 63 54 55 70 70 56 51 50 71 74 77 106 124 93 42 48 61 52 41 42 40 37 34 21 40 50 52 47
305 304 302 299 298 294 292 290 290 245 236 251 232 221 58 321 64 151 161 188 221 246 209 235 211 281 319 320 319 274 323 354 329 190 154 252 202 201 231 111 316 79 283 252 1 165 147 255 201 74 115 81 54 72 77 66 60 54 29 41 29 62 71 60 40 50 39 14 88 143 176 110 77 65 57 50 45 44 52 50 44 40 33 22 32 41 46
306 303 301 298 296 294 291 265 200 210 204 235 255 135 60 54 95 160 223 259 236 292 302 262 325 269 269 291 303 293 9 332 271 208 214 96 341 307 100 115 57 260 229 98 256 4 93 252 73 357 344 65 43 154 160 151 146 121 108 94 84 86 118 140 137 120 98 59 70 100 100 98 92 90 79 60 49 44 51 53 45 46 45 35 22 28 39
305 301 301 300 292 196 235 230 175 197 292 294 274 188 153 190 164 183 195 225 209 222 254 310 296 253 225 251 263 271 352 332 325 6 358 58 205 277 42 41 94 267 28 3 29 55 305 66 95 74 37 118 125 49 82 127 135 137 143 170 185 173 131 76 78 139 152 323 14 337 64 81 73 76 75 67 62 54 49 52 49 51 51 40 25 24 35
304 302 301 270 235 259 216 29 339 290 321 292 320 294 201 173 167 196 172 235 198 159 228 226 253 259 261 271 278 263 320 292 357 291 311 321 26 327 10 109 222 85 15 252 252 188 35 49 95 111 63 53 59 43 88 100 119 136 146 149 102 77 62 44 34 48 68 52 36 36 45 68 84 77 78 70 67 71 73 68 59 59 53 40 22 13 36
301 285 245 242 245 308 16 349 350 334 300 250 199 313 261 194 202 228 200 187 116 234 226 188 243 231 248 269 274 285 120 255 325 349 7 286 79 319 12 52 297 65 298 39 302 36 21 1 62 60 73 67 35 340 47 76 65 80 81 79 82 83 85 66 65 90 93 101 101 90 97 76 72 83 95 98 82 78 69 60 61 68 78 55 29 33 57
341 331 326 317 352 326 301 308 332 322 272 290 201 145 258 220 166 261 199 157 229 227 167 229 229 219 214 234 265 303 308 62 20 319 312 309 33 119 278 39 291 85 246 148 243 356 115 96 63 74 113 139 141 225 57 98 103 81 82 73 72 81 86 77 56 47 125 110 86 86 84 87 92 96 100 102 101 96 84 77 80 64 47 51 48 53 41
342 331 323 334 329 322 309 315 307 242 250 255 275 220 237 274 227 239 314 275 237 227 184 228 222 291 260 342 325 287 289 110 240 217 148 190 252 78 25 218 243 76 285 46 270 90 146 95 113 134 199 192 179 155 101 91 96 105 101 92 85 92 96 95 78 41 57 74 70 71 74 84 83 77 65 76 92 100 104 96 75 70 59 47 46 31 24
330 299 285 293 285 280 286 258 207 278 261 227 225 241 202 242 261 290 174 205 233 258 292 255 279 243 260 210 238 88 295 204 213 71 74 342 300 92 254 238 38 95 272 247 203 35 58 95 98 107 188 167 175 155 139 119 117 109 110 120 133 137 124 110 79 50 66 96 94 84 76 75 69 65 78 85 89 100 113 109 98 87 93 90 64 56 40
293 282 252 262 267 241 214 275 213 168 205 201 109 312 277 254 196 207 249 209 284 228 248 294 235 256 286 7 327 260 213 205 31 314 57 227 292 57 58 351 67 16 249 310 47 305 39 27 62 212 182 128 149 154 142 138 133 106 101 94 78 76 96 83 75 67 72 81 80 86 85 80 74 64 67 98 107 93 80 90 112 111 85 75 63 61 56
283 264 254 196 233 264 161 266 232 73 291 227 147 216 221 266 286 305 280 281 338 264 183 174 305 6 309 249 165 260 1 344 33 14 314 122 98 239 73 243 207 238 20 28 311 102 121 100 156 144 101 100 77 104 126 116 110 106 108 117 114 105 106 107 103 87 86 95 78 83 95 104 103 78 64 74 95 96 96 102 112 121 122 103 86 83 78
302 279 220 257 263 252 88 306 263 187 210 208 210 239 225 224 246 252 281 271 43 320 317 128 243 309 299 283 308 288 120 245 6 95 236 123 355 323 86 290 295 29 141 245 225 120 69 36 359 47 50 46 49 119 124 127 128 134 152 111 106 89 87 104 115 134 145 117 121 119 108 99 96 95 85 82 107 119 125 127 127 110 114 116 106 88 96
274 288 308 260 291 289 219 259 166 215 243 211 223 223 251 280 315 308 207 214 334 316 331 330 356 351 326 303 126 256 303 323 6 247 213 119 105 327 271 292 53 3 333 288 55 79 130 154 80 80 112 118 74 85 110 111 109 112 114 119 108 96 99 95 75 50 62 109 99 101 108 102 92 85 78 70 80 96 107 103 88 111 119 111 121 131 123
262 255 234 285 285 263 206 252 231 218 229 216 221 243 256 298 300 272 274 307 310 315 335 292 318 341 325 306 354 332 313 319 184 264 65 40 154 251 3 84 296 245 247 292 94 109 138 178 166 148 96 80 77 91 112 119 123 147 137 111 107 108 103 91 81 81 44 83 104 92 99 114 120 114 109 103 110 123 116 110 106 96 106 127 137 136 127
285 289 304 248 242 233 223 239 283 291 276 269 265 308 40 56 21 344 329 321 307 356 346 341 346 346 323 295 140 228 259 273 326 308 137 169 21 33 5 17 299 279 212 76 87 146 158 160 142 115 88 77 66 72 100 110 114 115 110 117 118 113 104 96 92 78 34 25 112 111 102 96 104 111 117 112 91 67 90 117 120 122 121 117 114 116 115
264 301 294 297 289 303 296 308 269 258 260 253 208 53 40 42 355 312 308 315 331 316 286 283 243 52 276 261 229 259 287 256 189 239 353 42 95 218 161 262 336 330 284 136 150 156 138 135 107 90 82 81 76 96 104 110 138 116 112 104 101 99 94 92 88 69 44 51 79 98 99 108 118 125 114 100 103 111 100 122 137 134 142 138 135 138 139
254 253 222 245 292 277 279 291 273 268 291 312 92 135 101 75 348 308 334 332 331 333 338 335 77 107 260 24 313 310 276 265 194 81 76 134 190 201 89 323 249 195 304 33 92 125 115 112 104 95 91 78 71 92 97 95 59 92 108 105 105 105 107 102 93 343 231 111 77 111 113 98 89 98 119 128 139 144 117 109 124 142 148 135 126 117 117
208 232 251 233 257 283 337 317 328 325 319 341 33 3 9 88 48 346 335 316 315 331 2 278 247 185 262 258 264 313 265 23 43 274 158 194 206 121 151 207 249 198 112 101 106 105 103 102 103 103 84 77 80 103 111 114 110 125 120 110 96 98 105 101 95 17 35 98 82 56 44 118 105 105 120 128 131 120 100 85 118 127 133 132 131 129 135
254 245 251 254 243 251 252 263 277 272 261 178 129 249 338 139 193 184 234 283 318 324 285 290 305 244 216 234 227 216 311 13 1 11 40 273 105 174 213 171 74 46 99 95 92 88 87 88 91 90 91 92 93 97 101 63 77 90 85 90 97 100 103 107 109 336 81 125 110 129 150 111 103 78 98 118 140 127 122 151 154 147 146 143 144 151 154